This is the latest recevied weather packets stored in our database for station/object HB9GPU-10. If no packets are shown the sender has not sent any weather packets the latest 10 day(s).
| Time | Temp. | Humidity | Pressure | Rain* | Wind** | Luminosity | Snow |
|---|---|---|---|---|---|---|---|
| 1788577467 | 23.89° C | 38% | 1023.6 hPa | - | - | - | - |
| 1788576567 | 23.89° C | 38% | 1023.5 hPa | - | - | - | - |
| 1788575667 | 23.89° C | 37% | 1023.3 hPa | - | - | - | - |
| 1788574767 | 24.44° C | 37% | 1023.4 hPa | - | - | - | - |
| 1788573867 | 24.44° C | 36% | 1023.3 hPa | - | - | - | - |
| 1788572967 | 23.89° C | 38% | 1023.4 hPa | - | - | - | - |
| 1788572066 | 24.44° C | 37% | 1023.3 hPa | - | - | - | - |
| 1788571166 | 24.44° C | 37% | 1023.3 hPa | - | - | - | - |
| 1788570266 | 24.44° C | 36% | 1023.3 hPa | - | - | - | - |
| 1788569366 | 24.44° C | 37% | 1023.2 hPa | - | - | - | - |
| 1788568466 | 24.44° C | 35% | 1023.4 hPa | - | - | - | - |
| 1788567565 | 25° C | 35% | 1023.5 hPa | - | - | - | - |
| 1788566665 | 25° C | 35% | 1023.3 hPa | - | - | - | - |
| 1788565765 | 25° C | 34% | 1023.4 hPa | - | - | - | - |
| 1788564865 | 23.89° C | 37% | 1023.2 hPa | - | - | - | - |
| 1788563965 | 25.56° C | 34% | 1023.2 hPa | - | - | - | - |
| 1788563065 | 25.56° C | 34% | 1023.3 hPa | - | - | - | - |
| 1788562164 | 25° C | 35% | 1023.3 hPa | - | - | - | - |
| 1788561264 | 25.56° C | 33% | 1023.3 hPa | - | - | - | - |
| 1788560364 | 25.56° C | 33% | 1023.3 hPa | - | - | - | - |
| 1788559464 | 25.56° C | 33% | 1023.1 hPa | - | - | - | - |
| 1788558564 | 25.56° C | 33% | 1023.1 hPa | - | - | - | - |
| 1788557664 | 26.11° C | 32% | 1023 hPa | - | - | - | - |
| 1788556763 | 24.44° C | 34% | 1022.9 hPa | - | - | - | - |
| 1788555863 | 25.56° C | 33% | 1022.8 hPa | - | - | - | - |
* Rain since midnight (hover to see other rain measurements)
** Current wind speed in m/s (hover to see current wind gust speed)